User: anonymous   Login
Location: Unspecified
(0.0000°N, 0.0000°E)
Time: 07:02:11
(UTC+00:00)
Language:

Kyokko - Orbit

View from above orbital plane
View from above orbital plane
View from above satellite
View from above satellite

Ground track
Ground track

The orbit data is extracted from the following two-line orbital elements,

1 10664U 78014A   19082.85088722 -.00000077  00000-0 -43493-4 0  9990
2 10664  65.3790   0.7202 1910475 295.8523  45.7823 10.75483416613953
Epoch (UTC): 23 March 2019 20:25:16
Eccentricity: 0.1910475
inclination: 65.3790°
perigee height: 635 km
apogee height: 3948 km
right ascension of ascending node: 0.7202°
argument of perigee: 295.8523°
revolutions per day: 10.75483416
mean anomaly at epoch: 45.7823°
orbit number at epoch: 61395

The dashed part of the orbit path shows where the satellite is in the earth's shadow,  

DLR